Regional Weather Roundup
Issued by NWS

Home | Current Version | Previous Version | Graphics & Text | Print | Product List | Glossary Off
Versions: 1 2 3 4 5 6 7 8 9 10 11 12 13 14 15 16 17 18 19 20 21 22 23 24 25 26 27 28 29 30 31 32 33 34 35 36 37 38 39 40 41 42 43 44 45 46 47 48 49 50

158
ASUS43 KDMX 131606
RWRIA

WEATHER ROUNDUP FOR IOWA
NATIONAL WEATHER SERVICE DES MOINES IA
1000 AM CST WED DEC 13 2017

NOTE: "FAIR" INDICATES FEW OR NO CLOUDS BELOW 12,000 FEET WITH NO
SIGNIFICANT WEATHER AND/OR OBSTRUCTIONS TO VISIBILITY.

* - THESE STATIONS ARE NOT NWS STATIONS...THUS NOT UNDER NWS
QUALITY CONTROL.  THEY ALSO DO NOT REPORT WEATHER SUCH
AS PRECIPITATION OR FOG.

IAZ001>003-012>014-020>022-031>034-043>046-131700-
   NORTHWEST IOWA

CITY           SKY/WX    TMP DP  RH WIND       PRES   REMARKS
CARROLL *      CLOUDY    41  36  81 NW29G49   29.62R
CHEROKEE *     CLOUDY    40  35  79 NW25G33   29.67R WCI  30
DENISON *      CLOUDY    43  34  70 NW29G36   29.68R
LE MARS *      CLOUDY    43  32  65 NW24G38   29.72R
ORANGE CITY *  CLOUDY    41  36  81 NW21G31   29.69R
SHELDON *      CLOUDY    37  34  87 NW26G39   29.66R WCI  26
SIOUX CITY     SUNNY     45  31  58 NW38G47   29.71R
SPENCER        CLOUDY    37  32  82 NW30G51   29.63R WCI  24
STORM LAKE *   CLOUDY    39  34  81 NW35G47   29.62R WCI  27
$$

IAZ055>058-069>071-079>083-090>094-131700-
   SOUTHWEST IOWA

CITY           SKY/WX    TMP DP  RH WIND       PRES   REMARKS
ATLANTIC *     MOSUNNY   48  34  57 NW30G36   29.66R
AUDUBON *      CLOUDY    45  36  70 NW32G48   29.65R
CLARINDA *     PTSUNNY   52  32  46 NW23G32     N/A
COUNCIL BLFS * SUNNY     48  32  53 NW28G36   29.70R
CRESTON *      CLOUDY    48  32  53 NW41G52   29.63R
HARLAN  *      CLOUDY    46  34  61 NW32G45   29.70R
LAMONI         SUNNY     51  28  41 NW32G44   29.59R
RED OAK *      MOSUNNY   50  34  53 NW21G39   29.69R
SHENANDOAH *   MOSUNNY   52  32  46 NW17G32   29.73R
$$

IAZ047>049-059>061-072>074-084-131700-
   CENTRAL IOWA

CITY           SKY/WX    TMP DP  RH WIND       PRES   REMARKS
AMES           LGT RAIN  40  37  89 NW29G48   29.55R WCI  29
ANKENY *       LGT RAIN  41  37  87 NW24G41   29.56R
BOONE *        RAIN      39  37  93 NW29G36   29.55R WCI  28
CHARITON *     PTSUNNY   50  28  43 NW26G41   29.54R
DES MOINES     LGT RAIN  43  36  76 NW32G41   29.56R
GRINNELL*      DRIZZLE   44  34  69 W33G43    29.47R
KNOXVILLE *    CLOUDY    48  30  49 NW26G39   29.51R
MARSHALLTOWN   CLOUDY    40  35  83 NW35G46   29.47R WCI  28
NEWTON *       CLOUDY    43  36  75 NW33G44   29.51R
PELLA *        CLOUDY    47  33  59 NW32G46   29.51R
PERRY *        CLOUDY    39  35  86 NW24G33   29.60R WCI  29
$$

IAZ004>006-015-016-023>025-035-036-131700-
   NORTH CENTRAL IOWA

CITY           SKY/WX    TMP DP  RH WIND       PRES   REMARKS
ALGONA *       CLOUDY    37  36  93 NW39G48   29.54R WCI  23
CLARION *      CLOUDY    36  36 100 NW33G43   29.51R WCI  22
ESTHERVILLE    CLOUDY    34  29  82 NW46G58   29.60R WCI  18
FORT DODGE *   CLOUDY    38  33  82 NW21G32   29.56R WCI  28
MASON CITY     MIX PCPN  34  31  88 NW33G47   29.47R FOG     WCI  20
FOREST CITY *  CLOUDY    34  32  93 NW29G38   29.48R WCI  20
WEBSTER CITY * PTSUNNY   37  34  87 NW37G46   29.52R WCI  24
IOWA FALLS *   LGT RAIN  37  34  88 NW31G44   29.49R WCI  24
$$

IAZ007>011-017>019-026>030-037>042-050>054-066-131700-
   NORTHEAST IOWA

CITY           SKY/WX    TMP DP  RH WIND       PRES   REMARKS
CEDAR RAPIDS   MOSUNNY   45  29  53 W29G40    29.38S
CHARLES CITY * PTSUNNY   37  32  81 NW28G39   29.40R WCI  25
CLINTON *      CLOUDY    37  25  61 SW18G29   29.36F WCI  27
DECORAH *      CLOUDY    36  28  75 NW14G22   29.31R WCI  27
DUBUQUE        CLOUDY    32  25  75 SW10      29.32F WCI  24
MONTICELLO *   PTSUNNY   41  27  56 W16G25    29.34S
OELWEIN *      CLOUDY    39  30  70 NW31      29.34R WCI  27
WATERLOO       CLOUDY    40  29  64 NW26G39   29.39R WCI  29
$$

IAZ064-065-067-068-078-131700-
   EAST CENTRAL IOWA

CITY           SKY/WX    TMP DP  RH WIND       PRES   REMARKS
DAVENPORT      CLOUDY    37  24  59 SW20      29.39F WCI  27
IOWA CITY      MOSUNNY   46  28  49 W18G30    29.41F
MT. PLEASANT * MOSUNNY   42  26  52 W18       29.47F
MUSCATINE *    MOSUNNY   43  25  49 W18G25    29.43F
QUAD CITIES    CLOUDY    39  25  57 W13G23    29.39F WCI  31
$$

IAZ062-063-075>077-085>089-095>099-131700-
   SOUTHEAST IOWA

CITY           SKY/WX    TMP DP  RH WIND       PRES   REMARKS
BURLINGTON     CLOUDY    41  27  57 W14       29.46F
FAIRFIELD *    MOSUNNY   45  27  49 W21G30    29.47R
FORT MADISON * CLOUDY    43  27  52 W12G22    29.49F
KEOKUK *       PTSUNNY   41  27  56 SW15      29.50F
OSKALOOSA *    CLOUDY    46  33  59 NW28G35   29.49R
OTTUMWA        CLOUDY    46  27  47 W15       29.49R
WASHINGTON *   CLOUDY    43  27  52 W17       29.45S
$$

ABBREVIATIONS USED IN REMARKS
   TC - TEMPERATURES IN CELSIUS
  WCI - WIND CHILL INDEX
   HX - HEAT INDEX
  VSB - VISIBILITY
$$





USA.gov is the U.S. government's official web portal to all federal, state and local government web resources and services.